Location: Nairn
(57.5833°N, 3.8667°W)
Time: 02:28:16
(UTC+00:00)

Okean 2 Rocket - Pass Details

Date: 07 August 2020
Orbit: 616 x 641 km, 82.5° (Epoch: 19 September)

Event Time Altitude Azimuth Distance (km) Brightness Sun altitude
Exits shadow 00:41:46 18° 140° (SE) 1,558 4.7 -16.0°
Maximum altitude 00:44:19 31° 89° (E) 1,116 4.4 -15.9°
Drops below altitude 10° 00:48:18 10° 28° (NNE) 2,039 6.8 -15.9°
Sets 00:50:44 0° 18° (NNE) 2,957 8.2 -15.8°
